Wenatchee, WA

7:47 PM PDT on April 25, 2017 (GMT -0700)
Pangborn Memorial

Weather History for KEAT - March, 2011

Change the Weather History Date:

Saturday, March 19, 2011

  Actual Average Record
Temperature  
Mean Temperature 38 °F 40 °F  
Max Temperature 47 °F 50 °F 66 °F (1960)
Min Temperature 29 °F 30 °F 19 °F (1965)
Degree Days  
Heating Degree Days 27 25  
Month to date heating degree days 547 529  
Since 1 July heating degree days 5829 5728  
Cooling Degree Days 0 0  
Month to date cooling degree days 0 0  
Year to date cooling degree days 0 0  
Moisture  
Dew Point 31 °F    
Average Humidity 74    
Maximum Humidity 100    
Minimum Humidity 38    
Precipitation  
Precipitation 0.06 in 0.06 in 0.25 in (2007)
Month to date precipitation 1.62 1.03  
Year to date precipitation 4.72 4.36  
Snow  
Snow 0.40 in 0.20 in - ()
Month to date snowfall 2.5 3.2  
Since 1 July snowfall 69.7 49.6  
Snow Depth 0.00 in    
Sea Level Pressure  
Sea Level Pressure 29.71 in    
Wind  
Wind Speed 4 mph (NW)    
Max Wind Speed 7 mph    
Max Gust Speed -    
Visibility 10 miles    
Events Rain    
T = Trace of Precipitation, MM = Missing Value Source: NWS Daily Summary

Daily Weather History Graph

Daily Weather History Graph

Search for Another Location

Airport or City:

Trip Planner

Search our weather history database for the weather conditions in past years. The results will help you decide how hot, cold, wet, or windy it might be!

Date:

Astronomy

Mar. 19, 2011 Rise Set
Actual Time 7:06 AM PDT 7:11 PM PDT
Civil Twilight 6:35 AM PDT 7:42 PM PDT
Nautical Twilight 5:59 AM PDT 8:18 PM PDT
Astronomical Twilight 5:22 AM PDT 8:55 PM PDT
Moon 7:48 PM PDT (3/19) 6:36 AM PDT (3/19)
Length of Visible Light 13h 06m
Length of Day
12h 05m
Full, 100% of the Moon is Illuminated
Mar 19
Full
Mar 26
Last Quarter
Apr 3
New
Apr 11
First Quarter
Apr 17
Full

Hourly Weather History & Observations

Time (PDT) Temp. Windchill Dew Point Humidity Pressure Visibility Wind Dir Wind Speed Gust Speed Precip Events Conditions
12:31 AM 35.6 °F 31.7 °F 33.8 °F 93% 29.63 in 7.0 mi North 4.6 mph - 0.04 in Rain Light Rain
12:45 AM 35.6 °F 32.8 °F 33.8 °F 93% 29.63 in 6.0 mi NE 3.5 mph - 0.04 in Rain Light Rain
12:55 AM 35.1 °F 31.0 °F 34.0 °F 96% 29.65 in 6.0 mi WSW 4.6 mph - 0.05 in Rain Light Rain
1:04 AM 35.6 °F 31.7 °F 33.8 °F 93% 29.63 in 10.0 mi WSW 4.6 mph - 0.00 in Rain Light Rain
1:11 AM 35.6 °F 31.7 °F 33.8 °F 93% 29.63 in 10.0 mi West 4.6 mph - 0.00 in   Overcast
1:19 AM 35.6 °F 29.9 °F 33.8 °F 93% 29.63 in 7.0 mi WNW 6.9 mph - 0.00 in   Overcast
1:55 AM 35.1 °F 29.3 °F 34.0 °F 96% 29.65 in 10.0 mi WNW 6.9 mph - 0.00 in   Overcast
2:55 AM 34.0 °F 31.0 °F 33.1 °F 96% 29.65 in 10.0 mi West 3.5 mph - N/A   Clear
3:55 AM 33.1 °F 28.7 °F 33.1 °F 100% 29.65 in 10.0 mi NNW 4.6 mph - N/A   Clear
5:55 AM 33.1 °F - 30.9 °F 92% 29.67 in 10.0 mi Calm Calm - N/A   Clear
6:55 AM 32.0 °F - 30.9 °F 96% 29.68 in 10.0 mi Calm Calm - N/A   Clear
7:55 AM 32.0 °F - 30.9 °F 96% 29.70 in 10.0 mi Calm Calm - N/A   Clear
8:55 AM 35.1 °F - 34.0 °F 96% 29.71 in 10.0 mi Calm Calm - N/A   Clear
9:55 AM 39.0 °F - 35.1 °F 86% 29.71 in 10.0 mi Calm Calm - N/A   Clear
10:55 AM 42.1 °F 40.2 °F 33.1 °F 70% 29.72 in 10.0 mi West 3.5 mph - N/A   Clear
11:55 AM 45.0 °F - 34.0 °F 65% 29.72 in 10.0 mi Calm Calm - N/A   Clear
12:55 PM 46.9 °F - 27.0 °F 46% 29.72 in 10.0 mi NW 6.9 mph - N/A   Clear
1:55 PM 48.9 °F - 28.0 °F 44% 29.72 in 10.0 mi NE 3.5 mph - N/A   Scattered Clouds
2:55 PM 51.1 °F - 28.0 °F 41% 29.72 in 10.0 mi North 4.6 mph - N/A   Mostly Cloudy
3:55 PM 51.1 °F - 27.0 °F 39% 29.72 in 10.0 mi Variable 5.8 mph - N/A   Mostly Cloudy
4:55 PM 51.1 °F - 26.1 °F 38% 29.72 in 10.0 mi SSE 4.6 mph - N/A   Mostly Cloudy
5:55 PM 50.0 °F - 27.0 °F 41% 29.73 in 10.0 mi WSW 4.6 mph - N/A   Mostly Cloudy
6:55 PM 48.9 °F - 27.0 °F 43% 29.75 in 10.0 mi Variable 3.5 mph - N/A   Clear
7:55 PM 45.0 °F 43.5 °F 30.9 °F 58% 29.77 in 10.0 mi WNW 3.5 mph - N/A   Clear
8:55 PM 41.0 °F 38.0 °F 28.9 °F 62% 29.80 in 10.0 mi NNE 4.6 mph - N/A   Clear
9:55 PM 39.9 °F 37.8 °F 28.0 °F 63% 29.81 in 10.0 mi NNW 3.5 mph - N/A   Clear
10:55 PM 36.0 °F - 28.0 °F 73% 29.82 in 10.0 mi Calm Calm - N/A   Clear
11:55 PM 35.1 °F 31.0 °F 28.9 °F 78% 29.83 in 10.0 mi NNW 4.6 mph - N/A   Clear